User: anonymous   Login
Location: Unspecified
(0.0000°N, 0.0000°E)
Time: 02:05:48
(UTC+00:00)
Language:

DNEPR OBJECT X - Orbit

View from above orbital plane
View from above orbital plane
View from above satellite
View from above satellite

Ground track
Ground track

The orbit data is extracted from the following two-line orbital elements,

1 39437U 13066X   18055.29477003 +.00027312 +00000-0 +65868-3 0  9994
2 39437 097.7140 173.1841 0006833 293.0967 066.9558 15.41177248233745
Epoch (UTC): 24 February 2018 07:04:28
Eccentricity: 0.0006833
inclination: 97.7140°
perigee height: 438 km
apogee height: 447 km
right ascension of ascending node: 173.1841°
argument of perigee: 293.0967°
revolutions per day: 15.41177248
mean anomaly at epoch: 66.9558°
orbit number at epoch: 23374

The dashed part of the orbit path shows where the satellite is in the earth's shadow,  

DLR